Location: ??????
(55.2000°N, 38.3000°E)
Time: 00:47:37
(UTC+00:00)

ARGOS - Pass Details

Date: 15 November 2025
Orbit: 819 x 832 km, 98.5° (Epoch: 12 December)

Event Time Altitude Azimuth Distance (km) Brightness Sun altitude
Rises 03:30:17 0° 11° (N) 3,393 6.3 -12.5°
Reaches altitude 10° 03:33:10 10° 356° (N) 2,456 5.4 -12.1°
Maximum altitude 03:37:08 21° 309° (NW) 1,788 4.4 -11.6°
Enters shadow 03:40:21 13° 268° (W) 2,245 4.8 -11.1°
